CST,Max TemperatureF,Mean TemperatureF,Min TemperatureF,Max Dew PointF,MeanDew PointF,Min DewpointF,Max Humidity, Mean Humidity, Min Humidity, Max Sea Level PressureIn, Mean Sea Level PressureIn, Min Sea Level PressureIn, Max VisibilityMiles, Mean VisibilityMiles, Min VisibilityMiles, Max Wind SpeedMPH, Mean Wind SpeedMPH, Max Gust SpeedMPH,PrecipitationIn, CloudCover, Events, WindDirDegrees
2012-12-1,39,34,28,34,30,28,100,89,81,29.86,29.75,29.68,5,3,0,16,9,22,0.00,5,Fog,188
2012-12-2,46,36,26,39,32,27,100,87,66,29.89,29.74,29.45,10,6,0,22,6,30,0.00,4,Fog,154
2012-12-3,48,32,15,39,30,9,93,75,62,29.89,29.56,29.38,10,10,7,25,18,38,0.03,2,Rain,233
2012-12-4,19,12,6,10,6,3,92,78,63,30.36,30.19,29.90,10,10,7,21,12,28,0.00,2,Snow,293
2012-12-5,37,22,8,28,15,3,92,69,55,30.35,29.97,29.64,10,10,10,21,10,29,0.00,1,,150
2012-12-6,37,29,21,28,21,16,86,81,65,29.98,29.83,29.63,10,10,10,22,13,28,0.00,6,,265
2012-12-7,19,12,5,14,8,1,92,86,73,30.07,30.03,29.97,10,10,7,8,2,,0.00,1,,340
2012-12-8,26,18,10,23,17,7,93,84,79,30.04,29.98,29.92,10,8,2,12,3,,0.00,8,Snow,126
2012-12-9,23,6,-11,21,1,-15,93,81,61,30.21,30.15,30.05,10,7,2,22,14,25,0.00,4,Snow,358
2012-12-10,14,-1,-16,5,-6,-20,85,76,57,30.10,29.87,29.69,10,9,2,15,3,17,0.00,2,Snow,186
2012-12-11,8,-2,-11,5,-4,-17,92,78,56,29.92,29.81,29.68,10,7,2,15,8,20,0.00,5,Snow,272
2012-12-12,28,14,0,18,10,-4,93,81,59,29.94,29.80,29.71,10,10,7,13,6,18,0.00,5,,144
2012-12-13,26,16,6,21,10,3,93,85,59,30.10,30.04,29.94,10,9,3,13,6,,0.00,7,Snow,8
2012-12-14,37,22,8,28,17,5,93,79,60,30.07,29.91,29.73,10,10,7,14,6,20,0.00,1,,134
2012-12-15,30,20,10,28,21,10,100,90,80,29.73,29.65,29.59,10,6,0,12,6,,0.00,4,Fog,323
2012-12-16,19,14,10,18,16,9,100,95,86,29.81,29.77,29.69,10,8,1,13,8,,0.00,8,Snow,337
2012-12-17,17,14,12,16,14,12,100,93,86,29.78,29.71,29.64,10,6,2,0,0,,0.00,8,Snow,-1
2012-12-18,23,19,15,21,19,16,100,94,86,29.70,29.65,29.61,10,6,2,0,0,,0.00,8,Snow,-1
2012-12-19,24,19,12,25,16,10,100,89,74,30.02,29.85,29.70,10,8,2,16,6,,0.00,7,Snow,222
2012-12-20,12,2,-7,12,3,-9,100,87,79,30.17,30.09,30.02,10,7,2,14,8,17,0.00,6,Snow,331
2012-12-21,15,4,-7,9,1,-11,92,85,67,30.24,30.17,30.04,10,7,1,9,1,,0.00,4,Snow,181
2012-12-22,15,10,3,7,4,1,92,81,68,30.15,30.06,29.98,10,8,3,18,9,21,0.00,5,Snow,321
2012-12-23,3,-2,-7,0,-4,-11,92,85,78,30.17,30.14,30.10,10,10,7,12,7,,0.00,4,Snow,3
2012-12-24,0,-6,-14,-4,-12,-18,92,79,66,30.34,30.21,30.11,10,9,3,12,8,,0.00,4,Snow,324
2012-12-25,0,-10,-20,-9,-17,-26,84,76,60,30.45,30.41,30.34,10,9,2,10,3,,0.00,0,Snow,203
2012-12-26,15,4,-7,3,-5,-11,85,75,57,30.37,30.28,30.22,10,8,2,6,2,,0.00,3,Snow,173
2012-12-27,21,11,1,18,5,-2,92,82,73,30.24,30.18,30.12,10,9,2,7,0,,0.00,7,Snow,160
2012-12-28,19,11,3,12,7,1,100,87,73,30.13,30.05,29.98,10,6,2,12,2,,0.00,4,Snow,200
2012-12-29,10,0,-11,9,-5,-17,92,83,66,30.06,30.01,29.96,10,7,2,14,8,,0.00,4,Snow,197
2012-12-30,21,10,-2,16,7,-6,92,85,68,30.05,29.95,29.83,10,9,2,16,10,22,0.00,6,Snow,215
2012-12-31,5,-6,-16,-6,-13,-20,92,78,61,30.22,30.18,30.05,10,10,2,10,3,,0.00,0,Snow,279